Location: Star Camp Observatory
(34.2910°N, 116.3827°W)
Time: 16:07:21
(UTC-08:00)

Envisat - Pass Details

Date: 17 November 2019
Orbit: 764 x 766 km, 98.1° (Epoch: 09 December)

Event Time Altitude Azimuth Distance (km) Brightness Sun altitude
Rises 17:08:16 0° 143° (SE) 3,217 6.0 -6.2°
Reaches altitude 10° 17:10:45 10° 134° (SE) 2,294 5.2 -6.7°
Maximum altitude 17:15:15 33° 71° (ENE) 1,255 3.6 -7.6°
Drops below altitude 10° 17:19:46 10° 8° (N) 2,306 5.2 -8.5°
Sets 17:22:15 0° 359° (N) 3,235 6.1 -9.0°
